This is the latest recevied weather packets stored in our database for station/object W8DRH-13. If no packets are shown the sender has not sent any weather packets the latest 10 day(s).
| Time | Temp. | Humidity | Pressure | Rain* | Wind** | Luminosity | Snow |
|---|---|---|---|---|---|---|---|
| 1777945614 | 19.44° C | 66% | 1002.5 hPa | 0 mm | - | 0 W/m² | - |
| 1777945311 | 19.44° C | 66% | 1002.6 hPa | 0 mm | - | 0 W/m² | - |
| 1777945008 | 19.44° C | 66% | 1002.4 hPa | 0 mm | - | 0 W/m² | - |
| 1777944705 | 19.44° C | 65% | 1002.5 hPa | 0 mm | - | 0 W/m² | - |
| 1777944404 | 19.44° C | 66% | 1002.4 hPa | 0 mm | - | 0 W/m² | - |
| 1777944100 | 19.44° C | 65% | 1002.2 hPa | 0 mm | - | 0 W/m² | - |
| 1777943796 | 19.44° C | 65% | 1002.2 hPa | 0 mm | - | 0 W/m² | - |
| 1777943493 | 19.44° C | 65% | 1002.3 hPa | 0 mm | - | 0 W/m² | - |
| 1777943188 | 19.44° C | 65% | 1002.1 hPa | 0 mm | - | 0 W/m² | - |
| 1777942885 | 19.44° C | 66% | 1002.2 hPa | 0 mm | - | 0 W/m² | - |
| 1777942581 | 19.44° C | 66% | 1002.2 hPa | 0 mm | - | 0 W/m² | - |
| 1777942278 | 19.44° C | 66% | 1002.4 hPa | 0 mm | - | 0 W/m² | - |
| 1777941975 | 19.44° C | 66% | 1002.2 hPa | 0 mm | - | 0 W/m² | - |
| 1777941672 | 19.44° C | 65% | 1002.2 hPa | 0 mm | - | 0 W/m² | - |
| 1777941370 | 20° C | 64% | 1002.5 hPa | 0 mm | - | 0 W/m² | - |
| 1777941067 | 20° C | 64% | 1002.3 hPa | 0 mm | - | 1 W/m² | - |
| 1777940762 | 20° C | 63% | 1002.4 hPa | 0 mm | - | 3 W/m² | - |
| 1777940461 | 20° C | 62% | 1002.4 hPa | 0 mm | - | 5 W/m² | - |
| 1777940158 | 20° C | 62% | 1002.1 hPa | 0 mm | - | 9 W/m² | - |
| 1777939855 | 20.56° C | 61% | 1002.2 hPa | 0 mm | - | 14 W/m² | - |
| 1777939552 | 20.56° C | 61% | 1002.3 hPa | 0 mm | - | 20 W/m² | - |
| 1777939250 | 20.56° C | 60% | 1002.3 hPa | 0 mm | - | 15 W/m² | - |
| 1777938946 | 20.56° C | 60% | 1002.3 hPa | 0 mm | - | 28 W/m² | - |
| 1777938643 | 20.56° C | 59% | 1002.4 hPa | 0 mm | - | 42 W/m² | - |
| 1777938340 | 20.56° C | 59% | 1002.4 hPa | 0 mm | - | 31 W/m² | - |
* Rain latest hour (hover to see other rain measurements)
** Current wind speed in m/s (hover to see current wind gust speed)